CW4167 Weather Reports


Display with metric or nautical units.
time (UTC)temp
F
wind
direction
speed
MPH
gust
MPH
rain 1hr
in
rain 24hr
in
rain mn
in
humidity
%
barometer
mb
20260507113707 58 347 13.0 17.0 0.00 0.00 0.00 60 1014.7
20260507113206 58 322 11.0 16.0 0.00 0.00 0.00 62 1014.7
20260507111706 58 329 10.0 14.0 0.00 0.00 0.00 60 1014.7
20260507111206 58 336 10.0 15.0 0.00 0.00 0.00 60 1014.8
20260507105706 58 336 11.0 15.0 0.00 0.00 0.00 59 1014.8
20260507104207 57 345 7.0 15.0 0.00 0.00 0.00 55 1014.7
20260507103707 57 350 12.0 15.0 0.00 0.00 0.00 54 1014.7
20260507103206 58 350 9.0 15.0 0.00 0.00 0.00 55 1014.7
20260507102206 58 336 5.0 10.0 0.00 0.00 0.00 50 1014.7
20260507100705 57 350 9.0 13.0 0.00 0.00 0.00 49 1014.6
20260507100207 57 25 9.0 13.0 0.00 0.00 0.00 49 1014.6
20260507095705 57 13 7.0 7.0 0.00 0.00 0.00 51 1014.6
20260507094705 57 50 9.0 10.0 0.00 0.00 0.00 49 1014.5
20260507093206 58 28 6.0 9.0 0.00 0.00 0.00 50 1014.5
20260507085707 56 329 6.0 7.0 0.00 0.00 0.00 51 1014.3
20260507085205 56 353 7.0 13.0 0.00 0.00 0.00 52 1014.3
20260507084205 56 339 6.0 7.0 0.00 0.00 0.00 51 1014.2
20260507083706 55 312 6.0 8.0 0.00 0.00 0.00 51 1014.2
20260507083207 55 272 5.0 7.0 0.00 0.00 0.00 50 1014.1
20260507081706 55 339 2.0 6.0 0.00 0.00 0.00 52 1014.0
20260507080706 55 8 3.0 5.0 0.00 0.00 0.00 55 1013.8
20260507075207 54 18 4.0 5.0 0.00 0.00 0.00 59 1013.8
20260507074205 54 16 4.0 5.0 0.00 0.00 0.00 60 1013.8
20260507073205 53 0 2.0 6.0 0.00 0.00 0.00 62 1013.8
20260507071706 52 356 4.0 6.0 0.00 0.00 0.00 61 1013.7
20260507070205 52 348 2.0 5.0 0.00 0.00 0.00 67 1013.6
20260507065706 51 344 4.0 5.0 0.00 0.00 0.00 68 1013.6
20260507064205 50 356 5.0 5.0 0.00 0.00 0.00 72 1013.4
20260507063706 50 352 6.0 7.0 0.00 0.00 0.00 72 1013.4
20260507062706 50 354 3.0 6.0 0.00 0.00 0.00 74 1013.4
20260507062205 49 352 3.0 5.0 0.00 0.00 0.00 74 1013.4
20260507061705 50 344 2.0 3.0 0.00 0.00 0.00 76 1013.4
20260507061206 49 333 3.0 3.0 0.00 0.00 0.00 78 1013.4
20260507053705 45 195 0.0 2.0 0.00 0.00 0.00 90 1013.2
20260507053205 44 185 0.0 1.0 0.00 0.00 0.00 90 1013.2
20260507052205 42 154 2.0 2.0 0.00 0.00 0.00 90 1013.2
20260507051205 40 143 0.0 0.0 0.00 0.00 0.00 89 1013.1
20260507050706 40 143 0.0 0.0 0.00 0.00 0.00 89 1012.9
20260507050205 40 143 0.0 0.0 0.00 0.00 0.00 89 1012.9
20260507043705 39 143 0.0 0.0 0.00 0.00 0.00 90 1012.7
20260507042205 36 143 0.0 0.0 0.00 0.00 0.00 89 1012.7
20260507041706 35 143 0.0 0.0 0.00 0.00 0.00 89 1012.7
20260507040705 35 143 0.0 0.0 0.00 0.00 0.00 88 1012.7
20260507040205 35 143 0.0 1.0 0.00 0.00 0.00 88 1012.7
20260507034705 34 143 0.0 1.0 0.00 0.00 0.00 88 1012.5
20260507033705 34 143 0.0 0.0 0.00 0.00 0.00 88 1012.4
20260507033205 34 143 0.0 0.0 0.00 0.00 0.00 88 1012.5
20260507032705 34 143 0.0 0.0 0.00 0.00 0.00 88 1012.5
20260507031205 34 143 0.0 1.0 0.00 0.00 0.00 87 1012.4
20260507030705 34 143 0.0 0.0 0.00 0.00 0.00 87 1012.4
20260507025705 35 143 0.0 0.0 0.00 0.00 0.00 87 1012.3
20260507023705 35 143 0.0 0.0 0.00 0.00 0.00 87 1012.2
20260507023205 35 143 0.0 0.0 0.00 0.00 0.00 87 1012.2
20260507021706 35 143 0.0 0.0 0.00 0.00 0.00 87 1012.0
20260507020707 35 143 0.0 0.0 0.00 0.00 0.00 87 1012.0
20260507015706 35 143 0.0 0.0 0.00 0.00 0.00 87 1012.0
20260507013706 35 143 0.0 0.0 0.00 0.00 0.00 87 1011.8
20260507013205 35 143 0.0 0.0 0.00 0.00 0.00 87 1011.8
20260507012705 35 143 0.0 0.0 0.00 0.00 0.00 86 1011.7
20260507005705 36 143 0.0 0.0 0.00 0.00 0.00 85 1011.8
20260507003206 37 148 0.0 2.0 0.00 0.00 0.00 85 1011.7
20260507002705 37 149 0.0 2.0 0.00 0.00 0.00 85 1011.7
20260507000705 37 157 5.0 5.0 0.00 0.00 0.00 85 1011.7
20260507000207 38 157 3.0 3.0 0.00 0.00 0.00 85 1011.6
20260506235205 38 157 2.0 2.0 0.00 0.00 0.00 85 1011.6
20260506233205 38 157 3.0 3.0 0.00 0.00 0.00 84 1011.4
20260506232705 38 157 3.0 3.0 0.00 0.00 0.00 84 1011.4
20260506231705 39 157 1.0 2.0 0.00 0.00 0.00 84 1011.5
20260506231206 39 157 2.0 2.0 0.00 0.00 0.00 83 1011.5
20260506230205 39 157 0.0 0.0 0.00 0.00 0.00 83 1011.5
20260506225704 39 157 1.0 2.0 0.00 0.00 0.00 83 1011.6
20260506225205 40 157 2.0 2.0 0.00 0.00 0.00 83 1011.5
20260506222706 40 157 0.0 0.0 0.00 0.00 0.00 83 1011.4
20260506221205 41 157 2.0 2.0 0.00 0.00 0.00 82 1011.3
20260506220705 41 157 0.0 1.0 0.00 0.00 0.00 83 1011.3
20260506220205 41 157 0.0 1.0 0.00 0.00 0.00 82 1011.2
20260506215705 41 157 2.0 3.0 0.00 0.00 0.00 82 1011.1
20260506214207 41 161 2.0 3.0 0.00 0.00 0.00 82 1011.1
20260506211704 42 143 5.0 6.0 0.00 0.00 0.00 80 1011.0
20260506205205 42 139 4.0 6.0 0.00 0.00 0.00 77 1010.8
20260506204705 42 134 3.0 5.0 0.00 0.00 0.00 77 1010.7
20260506204205 42 135 3.0 5.0 0.00 0.00 0.00 76 1010.8
20260506203205 43 130 2.0 3.0 0.00 0.00 0.00 75 1010.8
20260506202205 43 130 3.0 5.0 0.00 0.00 0.00 74 1010.8
20260506201706 43 129 3.0 5.0 0.00 0.00 0.00 73 1010.6
20260506201205 44 136 3.0 5.0 0.00 0.00 0.00 72 1010.6
20260506200205 44 138 3.0 3.0 0.00 0.00 0.00 71 1010.6
20260506194704 45 139 3.0 3.0 0.00 0.00 0.00 69 1010.4
20260506194205 46 139 2.0 3.0 0.00 0.00 0.00 68 1010.4
20260506193705 46 139 5.0 5.0 0.00 0.00 0.00 68 1010.4
20260506192706 47 139 3.0 3.0 0.00 0.00 0.00 66 1010.4
20260506192205 47 139 3.0 5.0 0.00 0.00 0.00 66 1010.4
20260506191704 47 140 4.0 6.0 0.00 0.00 0.00 65 1010.3
20260506191204 48 131 5.0 6.0 0.00 0.00 0.00 64 1010.3
20260506190705 48 128 4.0 6.0 0.00 0.00 0.00 63 1010.1
20260506185704 49 125 4.0 6.0 0.00 0.00 0.00 62 1010.1
20260506183704 49 126 6.0 8.0 0.00 0.00 0.00 59 1009.9
20260506182704 50 121 7.0 10.0 0.00 0.00 0.00 58 1009.9
20260506182204 50 119 7.0 8.0 0.00 0.00 0.00 57 1009.8
20260506181204 51 126 8.0 13.0 0.00 0.00 0.00 56 1009.6
20260506175205 51 124 10.0 13.0 0.00 0.00 0.00 53 1009.5
20260506173205 53 123 10.0 14.0 0.00 0.00 0.00 50 1009.4
20260506170706 54 127 7.0 13.0 0.00 0.00 0.00 48 1009.1
20260506170204 54 117 10.0 15.0 0.00 0.00 0.00 47 1009.2
20260506165706 54 98 11.0 14.0 0.00 0.00 0.00 47 1009.1
20260506164708 54 106 12.0 17.0 0.00 0.00 0.00 46 1009.2
20260506164205 54 137 11.0 18.0 0.00 0.00 0.00 45 1009.2
20260506163705 54 115 13.0 17.0 0.00 0.00 0.00 45 1009.2
20260506162704 54 111 14.0 17.0 0.00 0.00 0.00 44 1009.1
20260506161708 54 121 16.0 18.0 0.00 0.00 0.00 45 1009.0
20260506161204 54 130 9.0 18.0 0.00 0.00 0.00 46 1009.1
20260506160204 54 131 12.0 17.0 0.00 0.00 0.00 46 1009.1
20260506155204 54 111 7.0 15.0 0.00 0.00 0.00 47 1009.0
20260506154704 54 115 10.0 14.0 0.00 0.00 0.00 46 1009.0
20260506152205 54 115 11.0 14.0 0.00 0.00 0.00 47 1009.1
20260506151704 54 117 8.0 13.0 0.00 0.00 0.00 48 1009.1
20260506151204 54 131 10.0 15.0 0.00 0.00 0.00 48 1009.1
20260506150204 54 123 10.0 15.0 0.00 0.00 0.00 47 1009.0
20260506145706 54 115 14.0 20.0 0.00 0.00 0.00 47 1009.0
20260506145204 54 123 13.0 18.0 0.00 0.00 0.00 48 1009.0
20260506143204 54 121 10.0 20.0 0.00 0.00 0.00 56 1008.8
20260506142204 55 101 14.0 18.0 0.00 0.00 0.00 60 1008.8
20260506140704 54 161 6.0 9.0 0.00 0.00 0.00 62 1008.8
20260506135204 54 7 12.0 16.0 0.00 0.00 0.00 62 1008.4
20260506134706 55 353 10.0 17.0 0.00 0.00 0.00 61 1008.4
20260506133704 56 8 9.0 14.0 0.00 0.00 0.00 60 1008.4
20260506133205 56 7 12.0 18.0 0.00 0.00 0.00 61 1008.4
20260506132704 56 349 14.0 18.0 0.00 0.00 0.00 62 1008.4
20260506132204 55 339 15.0 18.0 0.00 0.00 0.00 61 1008.3
20260506131704 55 337 11.0 18.0 0.00 0.00 0.00 62 1008.3
20260506131204 55 355 13.0 18.0 0.00 0.00 0.00 61 1008.3
20260506125204 57 337 13.0 20.0 0.00 0.00 0.00 59 1008.2
20260506124704 57 344 14.0 24.0 0.00 0.00 0.00 59 1008.1
20260506124204 57 334 14.0 18.0 0.00 0.00 0.00 61 1008.1
20260506123704 56 349 18.0 24.0 0.00 0.00 0.00 58 1008.2
20260506121204 57 329 13.0 23.0 0.00 0.00 0.00 58 1008.1
20260506115706 57 324 17.0 21.0 0.00 0.00 0.00 58 1008.1
20260506114705 57 335 14.0 22.0 0.00 0.00 0.00 58 1008.1